Regional Weather Roundup
Issued by NWS Northern Indiana

Home | Current Version | Previous Version | Text Only | Print | Product List | Glossary Off
Versions: 1 2 3 4 5 6 7 8 9 10 11 12 13 14 15 16 17 18 19 20 21 22 23 24 25 26 27 28 29 30 31 32 33 34 35 36 37 38 39 40 41 42 43 44 45 46 47 48 49 50

000
ASUS43 KIWX 190210
RWRIWX

KIWX WEATHER ROUNDUP
NATIONAL WEATHER SERVICE NORTHERN INDIANA
1000 PM EDT THU SEP 18 2014

NOTE: "FAIR" INDICATES FEW OR NO CLOUDS BELOW 12,000 FEET WITH NO
SIGNIFICANT WEATHER AND/OR OBSTRUCTIONS TO VISIBILITY.

* THESE STATIONS ARE NOT UNDER NWS QUALITY CONTROL. THEY ALSO MAY NOT
  REPORT WEATHER SUCH AS PRECIPITATION OR FOG.

INZ001>027-190300-
NORTHERN INDIANA

CITY           SKY/WX    TMP DP  RH WIND       PRES   REMARKS
GARY*          PTCLDY    61  57  88 N6        30.15R
VALPARAISO     CLEAR     57  53  86 CALM      30.14R
MICHIGAN CITY*   N/A     52  52 100 CALM      30.15S FOG
LAPORTE*       PTCLDY    56  53  89 N7        30.15R
KNOX*          CLEAR     54  51  88 NE3       30.13R
SOUTH BEND     CLEAR     59  51  75 CALM      30.16R
GOSHEN         CLEAR     56  50  80 E6        30.15R
MONTICELLO*    CLEAR     57  51  80 E3        30.12R
LOGANSPORT*    CLEAR     59  46  63 NE5       30.13S
ROCHESTER*     CLEAR     55  52  88 NE3       30.14R
WARSAW*        CLEAR     57  52  82 E3        30.14S
ANGOLA*        CLEAR     55  50  82 NE5       30.17R
FORT WAYNE     PTCLDY    57  49  74 E5        30.15R
HUNTINGTON*    CLEAR     54  51  89 NE3       30.14R
PERU/GRISSOM   CLEAR     56  55  93 E5        30.13R
MARION*        CLEAR     52  48  87 E3        30.14R

$$
INZ028>050-190300-
CENTRAL INDIANA

CITY           SKY/WX    TMP DP  RH WIND       PRES   REMARKS
LAFAYETTE      CLEAR     59  49  69 NE7       30.11R
KOKOMO*        CLEAR     54  48  82 E3        30.13R
MUNCIE*        CLEAR     54  48  80 E3        30.13R
INDIANAPOLIS   CLEAR     63  48  58 NE7       30.10R

$$
MIZ043>046-050>051-056>058-064>065-071>073-077>080-190300-
SOUTHWEST LOWER MICHIGAN

CITY           SKY/WX    TMP DP  RH WIND       PRES   REMARKS
BATTLE CREEK   CLEAR     57  50  77 E7        30.19R
BENTON HARBOR  CLEAR     54  52  93 CALM      30.15R
COLDWATER*     CLEAR     57  53  85 E6        30.17R
HILLSDALE*     CLEAR     55  53  93 E5        30.18R
HOLLAND        CLEAR     57  53  86 E6        30.19R
GRAND RAPIDS   CLEAR     53  51  93 E6        30.19R
KALAMAZOO      CLEAR     57  51  80 CALM      30.18R
STURGIS*       CLEAR     55  52  88 NE6       30.16R
THREE RIVERS*  FAIR      57  52  82 NE5       30.17R

$$
OHZ001>008-015>018-024>025-190300-
NORTHWEST OHIO

CITY           SKY/WX    TMP DP  RH WIND       PRES   REMARKS
WAUSEON*       FAIR      54  52  94 E5        30.18R
DEFIANCE       CLEAR     59  51  75 E5        30.17R
FINDLAY        CLEAR     58  51  78 E7        30.16R
TOLEDO EXPRESS CLEAR     56  53  90 NE7       30.17R
TOLEDO METCALF CLEAR     59  52  77 NE6       30.18R
LIMA           CLEAR     55  50  83 E7        30.15R

$$
&&


USA.gov is the U.S. government's official web portal to all federal, state and local government web resources and services.